Regional Weather Roundup
Issued by NWS

Home | Current Version | Previous Version | Text Only | Print | Product List | Glossary Off
Versions: 1 2 3 4 5 6 7 8 9 10 11 12 13 14 15 16 17 18 19 20 21 22 23 24 25 26 27 28 29 30 31 32 33 34 35 36 37 38 39 40 41 42 43 44 45 46 47 48 49 50

000
ASUS43 KMPX 301501
RWRMN
WEATHER ROUNDUP FOR MINNESOTA
NATIONAL WEATHER SERVICE TWIN CITIES/CHANHASSEN MN
1000 AM CDT FRI SEP 30 2016


NOTE: "FAIR" INDICATES FEW OR NO CLOUDS BELOW 12,000 FEET WITH NO
SIGNIFICANT WEATHER AND/OR OBSTRUCTIONS TO VISIBILITY. N/A MEANS
CURRENT SKY AND/OR WEATHER CONDITIONS ARE NOT AVAILABLE.

MNZ060>063-068>070-301600-
   Twin Cities Metro

CITY           SKY/WX    TMP DP  RH WIND       PRES   REMARKS
TWIN CITIES    MOSUNNY   56  51  84 N7        30.37F
ST PAUL        SUNNY     58  51  78 N3        30.38F
CRYSTAL        CLOUDY    52  49  89 E6        30.37S
BLAINE         CLOUDY    54  54 100 NE5       30.38F FOG
LAKEVILLE      SUNNY     55  54  94 NE7       30.35F
EDEN PRAIRIE   CLOUDY    53  51  93 N7        30.36S FOG
LAKEVILLE      SUNNY     55  54  94 NE7       30.35F
SOUTH ST PAUL  SUNNY     57  51  81 N5        30.37S
LAKE ELMO      FAIR      55  52  88 NE6       30.38F
$$
MNZ001>005-007-008-013>017-022>024-027-028-301600-
   Northwest Minnesota

CITY           SKY/WX    TMP DP  RH WIND       PRES   REMARKS
BEMIDJI        FOG       49  49 100 SE8       30.40S VSB 1
HALLOCK        PTSUNNY   55  52  88 S12       30.31F
ROSEAU         HAZE      55  50  82 SE9       30.37S VSB 1
WARROAD        CLOUDY    54  50  87 SE6       30.38S
THIEF RVR FALL SUNNY     55  50  83 S9        30.37R
CROOKSTON      MOSUNNY   57  52  82 S12G17    30.34F
FOSSTON        CLOUDY    50  48  93 SE8       30.38S
DETROIT LAKES  FOG       50  48  93 SE9       30.38S VSB 3/4
MOORHEAD       CLOUDY    57  52  82 SE12      30.35S
PARK RAPIDS    CLOUDY    52  50  93 SE8       30.39S FOG
MAHNOMEN       CLOUDY    50  48  94 SE8       30.37S
$$
MNZ006-009>011-018-025>026-301600-
   North Central Minnesota

CITY           SKY/WX    TMP DP  RH WIND       PRES   REMARKS
BAUDETTE       MOSUNNY   52  47  83 SE12      30.41S
FLAG ISLAND    CLOUDY    54  48  82 SE14      30.37S
INTL FALLS     CLOUDY    48  47  96 SE9       30.43S FOG
WASKISH        CLOUDY    48  48 100 SE6       30.41S FOG
BIG FORK       CLOUDY    52  50  93 CALM      30.42F FOG
GRAND RAPIDS   CLOUDY    51  50  96 VRB5      30.44S
ORR            CLOUDY    50  46  87 SE3       30.42S FOG
COOK           CLOUDY    50  48  93 S5        30.45S
WALKER         CLOUDY    50  49  98 SE5       30.40S FOG
$$
MNZ012-019>021-037-301600-
   Northeast Minnesota

CITY           SKY/WX    TMP DP  RH WIND       PRES   REMARKS
DULUTH         CLOUDY    52  50  93 E13       30.44S
ELY            CLOUDY    52  48  87 SE5       30.46S
HIBBING        CLOUDY    50  47  89 E6        30.44S
EVELETH        CLOUDY    53  48  85 CALM      30.46S
DULUTH HARBOR  CLOUDY    55  52  88 NE13      30.45F
TWO HARBORS    CLOUDY    55  52  88 E7        30.44S
SILVER BAY     CLOUDY    55  52  88 E5        30.45S
GRAND MARAIS     N/A     55  53  93 E9        30.47S
G MARAIS ARPRT SUNNY     54  48  82 CALM      30.47S
$$
MNZ029>031-032-039>041-046>048-054>057-064-301600-
   West Central Minnesota

CITY           SKY/WX    TMP DP  RH WIND       PRES   REMARKS
FERGUS FALLS   SUNNY     55  54  94 SE8       30.38S
MORRIS         PTSUNNY   54  54 100 SE9       30.36S
ALEXANDRIA     FOG       50  50 100 E6        30.39S VSB 3/4
ELBOW LAKE     CLOUDY    52  52 100 SE6       30.37R FOG
WADENA         FOG       46  46 100 SE6       30.39S VSB 1/4
GLENWOOD       FOG       52  52 100 E5        30.38S VSB 1/4
BENSON         CLOUDY    54  52  94 SE5       30.37R FOG
ORTONVILLE     FOG       50  48  93 CALM      30.35S VSB 1/4
MADISON        FOG       52  52 100 SE5       30.36R VSB 1/2
WILLMAR        CLOUDY    54  54 100 E7        30.38S FOG
$$
MNZ033>034-036-042>043-049>051-058-059-301600-
   Central Minnesota

CITY           SKY/WX    TMP DP  RH WIND       PRES   REMARKS
ST CLOUD       FOG       51  51 100 E3        30.40R VSB 3/4
SAUK CENTRE    FOG       50  50 100 E6        30.39S VSB 1
PAYNESVILLE    CLOUDY    51  51 100 E6        30.39S FOG
AITKIN         CLOUDY    54  46  76 CALM      30.41S
PINE RIVER     CLOUDY    52  52 100 E6        30.43S
BRAINERD       CLOUDY    52  49  89 VRB5      30.41S
STAPLES        CLOUDY    48  48 100 CALM      30.40S FOG
LONG PRAIRIE   CLOUDY    50  50 100 CALM      30.40R FOG
LITTLE FALLS   CLOUDY    50  48  93 CALM      30.41R FOG
LITCHFIELD     FOG       54  54 100 E5        30.39R VSB 1/2
BUFFALO        CLOUDY    51  50  95 NE7       30.40R FOG
MAPLE LAKE     FOG       53  53  99 E7        30.40S VSB 3/4
HUTCHINSON     FOG       53  53 100 N5        30.38S VSB 3/4
$$
MNZ037-044-045-052-053-301600-
   East Central Minnesota

CITY           SKY/WX    TMP DP  RH WIND       PRES   REMARKS
PRINCETON      CLOUDY    54  52  94 NE5       30.41R FOG
MORA           CLOUDY    50  50 100 CALM      30.43S
CAMBRIDGE      CLOUDY    54  50  87 N6        30.38S FOG
MOOSE LAKE     CLOUDY    52  48  87 CALM      30.41S
HINCKLEY       CLOUDY    52  50  93 E7        30.42S
CLOQUET        CLOUDY    54  48  82 E8        30.43S
MCGREGOR       CLOUDY    52  50  93 SE7       30.43S
$$
MNZ071>073-080-081-089-090-097-098-301600-
   Southwest Minnesota

CITY           SKY/WX    TMP DP  RH WIND       PRES   REMARKS
MONTEVIDEO     FOG       52  52 100 SE3       30.38S VSB 1/4
GRANITE FALLS  MOSUNNY   56  53  89 E3        30.38R
CANBY          SUNNY     55  52  88 E5        30.36F
MARSHALL       CLOUDY    49  49 100 CALM      30.36S FOG
REDWOOD FALLS  FOG       50  49  96 E6        30.36S VSB<1/4
OLIVIA         CLOUDY    52  50  93 E5        30.36S FOG
PIPESTONE      SUNNY     61  52  72 SE6       30.34S
WINDOM         SUNNY     59  52  77 CALM      30.34F
WORTHINGTON    SUNNY     57  52  83 CALM      30.35S
JACKSON        SUNNY     59  52  77 E7        30.35R
TRACY          SUNNY     56  54  94 CALM      30.35S
$$
MNZ065>067-074>077-082>085-091>093-301600-
   South Central Minnesota

CITY           SKY/WX    TMP DP  RH WIND       PRES   REMARKS
MANKATO        SUNNY     58  53  84 NE7       30.35S
NEW ULM        CLOUDY    52  52 100 E7        30.36R FOG
ST JAMES       FOG       50  50 100 CALM      30.36F VSB 1/4
FAIRMONT       SUNNY     57  52  83 E3        30.35R
GLENCOE        FOG       53  53 100 NE3       30.37R VSB 1/4
FARIBAULT      PTSUNNY   54  52  94 NE3       30.35S
OWATONNA       SUNNY     59  52  77 NE5       30.34S
WASECA         SUNNY     55  52  88 N5        30.35S
ALBERT LEA     SUNNY     61  54  77 NE7       30.33S
$$
MNZ078>079-086>088-094>096-301600-
   Southeast Minnesota

CITY           SKY/WX    TMP DP  RH WIND       PRES   REMARKS
ROCHESTER      SUNNY     59  54  83 NE9       30.35R
RED WING       SUNNY     61  52  72 CALM      30.34S
STANTON        SUNNY     55  54  95 NE6       30.34F
DODGE CENTER   SUNNY     59  54  82 NE7       30.33F
WINONA         PTSUNNY   57  52  82 NW3       30.33S
AUSTIN         SUNNY     61  52  72 NE9       30.32S
PRESTON        CLOUDY    56  52  84 N9        30.32F
$$
ABBREVIATIONS USED IN REMARKS
   TC - TEMPERATURES IN CELSIUS
  WCI - WIND CHILL INDEX
   HX - HEAT INDEX
  VSB - VISIBILITY
$$



USA.gov is the U.S. government's official web portal to all federal, state and local government web resources and services.